| time (UTC) | temp C | wind direction | speed KPH | gust KPH | rain 1hr cm | rain 24hr cm | rain mn cm | humidity % | barometer mb |
| 20260504141008 | 14 | 102 | 3.2 | 4.8 | 0.00 | 0.00 | 0.00 | 73 | 1015.8 |
| 20260504140505 | 13 | 60 | 1.6 | 3.2 | 0.00 | 0.00 | 0.00 | 73 | 1016.0 |
| 20260504130429 | 13 | 108 | 8.0 | 14.5 | 0.00 | 0.00 | 0.00 | 63 | 1015.1 |
| 20260504110311 | 5 | 151 | 0.0 | 0.0 | 0.00 | 0.00 | 0.00 | 95 | 1014.7 |
| 20260504100228 | 4 | 162 | 0.0 | 0.0 | 0.00 | 0.00 | 0.00 | 94 | 1014.8 |
| 20260504081622 | 5 | 162 | 0.0 | 0.0 | 0.00 | 0.00 | 0.00 | 90 | 1015.7 |
| 20260504081118 | 5 | 162 | 0.0 | 0.0 | 0.00 | 0.00 | 0.00 | 90 | 1015.5 |
| 20260504080615 | 5 | 161 | 0.0 | 0.0 | 0.00 | 0.00 | 0.00 | 89 | 1015.5 |
| 20260504080111 | 5 | 163 | 0.0 | 0.0 | 0.00 | 0.00 | 0.00 | 89 | 1015.8 |
| 20260504050427 | 8 | 197 | 0.0 | 0.0 | 0.00 | 0.00 | 0.00 | 87 | 1017.1 |
| 20260504045919 | 8 | 246 | 0.0 | 1.6 | 0.00 | 0.00 | 0.00 | 86 | 1017.0 |
| 20260504045414 | 8 | 3 | 0.0 | 0.0 | 0.00 | 0.00 | 0.00 | 87 | 1017.2 |
| 20260504044911 | 8 | 3 | 0.0 | 0.0 | 0.00 | 0.00 | 0.00 | 87 | 1017.1 |
| 20260504044408 | 8 | 3 | 0.0 | 0.0 | 0.00 | 0.00 | 0.00 | 87 | 1017.0 |
| 20260504043906 | 8 | 3 | 0.0 | 0.0 | 0.00 | 0.00 | 0.00 | 87 | 1017.2 |
| 20260504043402 | 8 | 4 | 0.0 | 0.0 | 0.00 | 0.00 | 0.00 | 85 | 1017.1 |
| 20260504042900 | 8 | 3 | 0.0 | 0.0 | 0.00 | 0.00 | 0.00 | 86 | 1017.1 |
| 20260504042356 | 8 | 3 | 0.0 | 0.0 | 0.00 | 0.00 | 0.00 | 86 | 1017.0 |
| 20260504041852 | 8 | 3 | 0.0 | 0.0 | 0.00 | 0.00 | 0.00 | 86 | 1017.3 |
| 20260504041348 | 8 | 2 | 0.0 | 1.6 | 0.00 | 0.00 | 0.00 | 85 | 1017.2 |
| 20260504040845 | 8 | 4 | 0.0 | 0.0 | 0.00 | 0.00 | 0.00 | 84 | 1017.2 |
| 20260504040343 | 8 | 4 | 0.0 | 0.0 | 0.00 | 0.00 | 0.00 | 83 | 1016.9 |
| 20260504035838 | 8 | 4 | 0.0 | 0.0 | 0.00 | 0.00 | 0.00 | 83 | 1017.0 |
| 20260504035337 | 8 | 4 | 0.0 | 0.0 | 0.00 | 0.00 | 0.00 | 83 | 1017.0 |
| 20260504034833 | 8 | 4 | 0.0 | 0.0 | 0.00 | 0.00 | 0.00 | 82 | 1017.0 |
| 20260504034330 | 8 | 5 | 1.6 | 1.6 | 0.00 | 0.00 | 0.00 | 80 | 1017.0 |
| 20260504033827 | 8 | 4 | 0.0 | 0.0 | 0.00 | 0.00 | 0.00 | 80 | 1016.8 |
| 20260504033325 | 8 | 295 | 0.0 | 0.0 | 0.00 | 0.00 | 0.00 | 81 | 1017.1 |
| 20260504032821 | 8 | 295 | 0.0 | 0.0 | 0.00 | 0.00 | 0.00 | 81 | 1017.0 |
| 20260504032319 | 8 | 295 | 0.0 | 0.0 | 0.00 | 0.00 | 0.00 | 81 | 1016.9 |
| 20260504031815 | 8 | 295 | 0.0 | 0.0 | 0.00 | 0.00 | 0.00 | 81 | 1017.0 |
| 20260504031313 | 8 | 295 | 0.0 | 0.0 | 0.00 | 0.00 | 0.00 | 79 | 1017.1 |
| 20260504030809 | 8 | 295 | 0.0 | 0.0 | 0.00 | 0.00 | 0.00 | 80 | 1017.2 |
| 20260504030306 | 8 | 295 | 0.0 | 0.0 | 0.00 | 0.00 | 0.00 | 79 | 1017.1 |
| 20260504025802 | 8 | 295 | 0.0 | 0.0 | 0.00 | 0.00 | 0.00 | 80 | 1017.2 |
| 20260504025259 | 8 | 295 | 0.0 | 0.0 | 0.00 | 0.00 | 0.00 | 80 | 1017.1 |
| 20260504024756 | 8 | 295 | 0.0 | 0.0 | 0.00 | 0.00 | 0.00 | 78 | 1016.8 |
| 20260504024253 | 8 | 295 | 0.0 | 0.0 | 0.00 | 0.00 | 0.00 | 77 | 1017.1 |
| 20260504023749 | 8 | 295 | 0.0 | 0.0 | 0.00 | 0.00 | 0.00 | 78 | 1017.1 |
| 20260504023246 | 8 | 295 | 0.0 | 0.0 | 0.00 | 0.00 | 0.00 | 77 | 1017.0 |
| 20260504022742 | 8 | 295 | 0.0 | 0.0 | 0.00 | 0.00 | 0.00 | 76 | 1017.0 |
| 20260504022238 | 8 | 295 | 0.0 | 0.0 | 0.00 | 0.00 | 0.00 | 76 | 1016.8 |
| 20260504021735 | 8 | 295 | 0.0 | 0.0 | 0.00 | 0.00 | 0.00 | 78 | 1016.8 |
| 20260504021233 | 8 | 295 | 0.0 | 0.0 | 0.00 | 0.00 | 0.00 | 76 | 1016.7 |
| 20260504020729 | 8 | 295 | 0.0 | 0.0 | 0.00 | 0.00 | 0.00 | 77 | 1016.5 |
| 20260504020226 | 8 | 295 | 0.0 | 0.0 | 0.00 | 0.00 | 0.00 | 77 | 1016.6 |
| 20260504015722 | 8 | 295 | 0.0 | 0.0 | 0.00 | 0.00 | 0.00 | 77 | 1016.5 |
| 20260504015219 | 8 | 295 | 0.0 | 0.0 | 0.00 | 0.00 | 0.00 | 76 | 1016.6 |
| 20260504014714 | 8 | 295 | 0.0 | 0.0 | 0.00 | 0.00 | 0.00 | 75 | 1016.5 |
| 20260504014211 | 8 | 295 | 0.0 | 0.0 | 0.00 | 0.00 | 0.00 | 75 | 1016.5 |
| 20260504013709 | 8 | 295 | 0.0 | 0.0 | 0.00 | 0.00 | 0.00 | 75 | 1016.5 |
| 20260504013206 | 8 | 295 | 0.0 | 0.0 | 0.00 | 0.00 | 0.00 | 75 | 1016.4 |
| 20260504012703 | 8 | 295 | 0.0 | 0.0 | 0.00 | 0.00 | 0.00 | 74 | 1016.3 |
| 20260504012201 | 8 | 297 | 0.0 | 0.0 | 0.00 | 0.00 | 0.00 | 76 | 1016.5 |
| 20260504011658 | 7 | 297 | 0.0 | 0.0 | 0.00 | 0.00 | 0.00 | 76 | 1016.6 |
| 20260504011154 | 7 | 297 | 0.0 | 0.0 | 0.00 | 0.00 | 0.00 | 75 | 1016.6 |
| 20260504010650 | 8 | 297 | 0.0 | 0.0 | 0.00 | 0.00 | 0.00 | 74 | 1016.6 |
| 20260504010145 | 8 | 297 | 0.0 | 0.0 | 0.00 | 0.00 | 0.00 | 74 | 1016.4 |
| 20260504005643 | 8 | 297 | 0.0 | 0.0 | 0.00 | 0.00 | 0.00 | 74 | 1016.7 |
| 20260504005139 | 8 | 297 | 0.0 | 0.0 | 0.00 | 0.00 | 0.00 | 72 | 1016.5 |
| 20260504004638 | 8 | 297 | 0.0 | 0.0 | 0.00 | 0.00 | 0.00 | 72 | 1016.5 |
| 20260504004135 | 9 | 297 | 0.0 | 0.0 | 0.00 | 0.00 | 0.00 | 69 | 1016.4 |
| 20260504003631 | 9 | 300 | 0.0 | 0.0 | 0.00 | 0.00 | 0.00 | 69 | 1016.4 |
| 20260504003127 | 9 | 304 | 0.0 | 0.0 | 0.00 | 0.00 | 0.00 | 70 | 1016.5 |
| 20260504002624 | 9 | 304 | 0.0 | 0.0 | 0.00 | 0.00 | 0.00 | 68 | 1016.3 |
| 20260504002122 | 10 | 305 | 0.0 | 0.0 | 0.00 | 0.00 | 0.00 | 68 | 1016.3 |
| 20260504001620 | 10 | 305 | 0.0 | 0.0 | 0.00 | 0.00 | 0.00 | 67 | 1016.4 |
| 20260504001115 | 10 | 305 | 0.0 | 0.0 | 0.00 | 0.00 | 0.00 | 65 | 1016.5 |
| 20260504000613 | 10 | 305 | 0.0 | 0.0 | 0.00 | 0.00 | 0.00 | 64 | 1016.4 |
| 20260504000110 | 11 | 305 | 0.0 | 0.0 | 0.00 | 0.00 | 0.00 | 63 | 1016.3 |
| 20260503235608 | 11 | 322 | 0.0 | 0.0 | 0.00 | 0.00 | 0.00 | 60 | 1016.2 |
| 20260503235105 | 11 | 322 | 0.0 | 0.0 | 0.00 | 0.00 | 0.00 | 58 | 1016.4 |
| 20260503234603 | 11 | 322 | 0.0 | 0.0 | 0.00 | 0.00 | 0.00 | 58 | 1016.2 |
| 20260503234100 | 12 | 322 | 0.0 | 0.0 | 0.00 | 0.00 | 0.00 | 56 | 1016.3 |
| 20260503233557 | 12 | 323 | 0.0 | 0.0 | 0.00 | 0.00 | 0.00 | 54 | 1016.3 |
| 20260503233053 | 13 | 353 | 0.0 | 0.0 | 0.00 | 0.00 | 0.00 | 55 | 1016.5 |
| 20260503232550 | 13 | 285 | 1.6 | 3.2 | 0.00 | 0.00 | 0.00 | 54 | 1016.5 |
| 20260503232047 | 14 | 141 | 0.0 | 0.0 | 0.00 | 0.00 | 0.00 | 44 | 1016.6 |
| 20260503231545 | 13 | 100 | 3.2 | 3.2 | 0.00 | 0.00 | 0.00 | 37 | 1016.4 |
| 20260503231041 | 15 | 89 | 3.2 | 4.8 | 0.00 | 0.00 | 0.00 | 40 | 1016.9 |
| 20260503230538 | 15 | 77 | 0.0 | 4.8 | 0.00 | 0.00 | 0.00 | 36 | 1016.7 |
| 20260503230036 | 15 | 265 | 0.0 | 3.2 | 0.00 | 0.00 | 0.00 | 37 | 1016.7 |
| 20260503225532 | 15 | 105 | 1.6 | 3.2 | 0.00 | 0.00 | 0.00 | 34 | 1016.9 |
| 20260503225027 | 15 | 205 | 1.6 | 9.7 | 0.00 | 0.00 | 0.00 | 37 | 1016.8 |
| 20260503224525 | 16 | 219 | 0.0 | 1.6 | 0.00 | 0.00 | 0.00 | 33 | 1016.8 |
| 20260503224023 | 16 | 98 | 4.8 | 6.4 | 0.00 | 0.00 | 0.00 | 33 | 1016.9 |
| 20260503223521 | 15 | 37 | 0.0 | 1.6 | 0.00 | 0.00 | 0.00 | 33 | 1017.0 |
| 20260503223016 | 16 | 339 | 1.6 | 3.2 | 0.00 | 0.00 | 0.00 | 32 | 1016.8 |
| 20260503222514 | 16 | 66 | 1.6 | 4.8 | 0.00 | 0.00 | 0.00 | 34 | 1016.7 |
| 20260503222012 | 16 | 88 | 1.6 | 3.2 | 0.00 | 0.00 | 0.00 | 31 | 1016.9 |
| 20260503221510 | 16 | 104 | 6.4 | 11.3 | 0.00 | 0.00 | 0.00 | 30 | 1016.9 |
| 20260503221007 | 16 | 91 | 4.8 | 6.4 | 0.00 | 0.00 | 0.00 | 33 | 1016.8 |
| 20260503220503 | 16 | 88 | 9.7 | 16.1 | 0.00 | 0.00 | 0.00 | 32 | 1017.0 |
| 20260503220000 | 16 | 126 | 0.0 | 0.0 | 0.00 | 0.00 | 0.00 | 31 | 1017.1 |
| 20260503215457 | 16 | 78 | 4.8 | 9.7 | 0.00 | 0.00 | 0.00 | 33 | 1017.0 |
| 20260503214954 | 16 | 98 | 3.2 | 6.4 | 0.00 | 0.00 | 0.00 | 32 | 1016.9 |
| 20260503214452 | 16 | 260 | 0.0 | 1.6 | 0.00 | 0.00 | 0.00 | 32 | 1017.1 |
| 20260503213949 | 17 | 188 | 6.4 | 6.4 | 0.00 | 0.00 | 0.00 | 32 | 1017.3 |
| 20260503213448 | 16 | 70 | 3.2 | 3.2 | 0.00 | 0.00 | 0.00 | 35 | 1017.3 |
| 20260503212943 | 17 | 91 | 0.0 | 3.2 | 0.00 | 0.00 | 0.00 | 30 | 1017.1 |
| 20260503212441 | 17 | 154 | 3.2 | 17.7 | 0.00 | 0.00 | 0.00 | 30 | 1017.2 |
| 20260503211938 | 17 | 40 | 1.6 | 3.2 | 0.00 | 0.00 | 0.00 | 29 | 1017.0 |
| 20260503211435 | 17 | 224 | 3.2 | 4.8 | 0.00 | 0.00 | 0.00 | 29 | 1017.0 |
| 20260503210930 | 17 | 111 | 1.6 | 6.4 | 0.00 | 0.00 | 0.00 | 30 | 1017.2 |
| 20260503210427 | 17 | 206 | 3.2 | 12.9 | 0.00 | 0.00 | 0.00 | 32 | 1017.3 |
| 20260503205922 | 17 | 207 | 3.2 | 11.3 | 0.00 | 0.00 | 0.00 | 33 | 1017.4 |
| 20260503205420 | 17 | 189 | 1.6 | 9.7 | 0.00 | 0.00 | 0.00 | 30 | 1017.4 |
| 20260503204916 | 16 | 81 | 3.2 | 4.8 | 0.00 | 0.00 | 0.00 | 34 | 1017.3 |
| 20260503204413 | 17 | 83 | 4.8 | 9.7 | 0.00 | 0.00 | 0.00 | 30 | 1017.4 |
| 20260503203910 | 17 | 88 | 4.8 | 6.4 | 0.00 | 0.00 | 0.00 | 32 | 1017.5 |
| 20260503203408 | 16 | 180 | 3.2 | 4.8 | 0.00 | 0.00 | 0.00 | 32 | 1017.8 |
| 20260503202904 | 17 | 92 | 6.4 | 9.7 | 0.00 | 0.00 | 0.00 | 30 | 1017.9 |
| 20260503202403 | 17 | 125 | 4.8 | 9.7 | 0.00 | 0.00 | 0.00 | 30 | 1018.0 |
| 20260503201901 | 17 | 218 | 3.2 | 12.9 | 0.00 | 0.00 | 0.00 | 32 | 1018.0 |
| 20260503201357 | 17 | 126 | 1.6 | 4.8 | 0.00 | 0.00 | 0.00 | 31 | 1018.0 |
| 20260503200855 | 17 | 97 | 8.0 | 11.3 | 0.00 | 0.00 | 0.00 | 29 | 1018.2 |
| 20260503200350 | 16 | 13 | 1.6 | 6.4 | 0.00 | 0.00 | 0.00 | 31 | 1018.1 |
| 20260503195848 | 17 | 88 | 3.2 | 4.8 | 0.00 | 0.00 | 0.00 | 29 | 1018.2 |
| 20260503195344 | 17 | 103 | 4.8 | 6.4 | 0.00 | 0.00 | 0.00 | 30 | 1018.3 |
| 20260503194842 | 16 | 132 | 1.6 | 4.8 | 0.00 | 0.00 | 0.00 | 36 | 1018.5 |
| 20260503194338 | 17 | 303 | 3.2 | 4.8 | 0.00 | 0.00 | 0.00 | 31 | 1018.7 |
| 20260503193834 | 17 | 236 | 3.2 | 6.4 | 0.00 | 0.00 | 0.00 | 33 | 1018.6 |
| 20260503193330 | 16 | 62 | 0.0 | 4.8 | 0.00 | 0.00 | 0.00 | 33 | 1018.6 |
| 20260503192826 | 16 | 87 | 3.2 | 4.8 | 0.00 | 0.00 | 0.00 | 34 | 1019.0 |
| 20260503192322 | 16 | 39 | 1.6 | 3.2 | 0.00 | 0.00 | 0.00 | 31 | 1019.0 |
| 20260503191818 | 17 | 193 | 1.6 | 14.5 | 0.00 | 0.00 | 0.00 | 32 | 1019.0 |
| 20260503191315 | 16 | 299 | 3.2 | 3.2 | 0.00 | 0.00 | 0.00 | 31 | 1019.0 |
| 20260503190812 | 16 | 227 | 0.0 | 0.0 | 0.00 | 0.00 | 0.00 | 31 | 1019.2 |
| 20260503190309 | 15 | 86 | 6.4 | 6.4 | 0.00 | 0.00 | 0.00 | 33 | 1019.3 |
| 20260503185806 | 16 | 84 | 3.2 | 4.8 | 0.00 | 0.00 | 0.00 | 31 | 1019.4 |
| 20260503185301 | 16 | 231 | 0.0 | 3.2 | 0.00 | 0.00 | 0.00 | 39 | 1019.5 |
| 20260503184801 | 15 | 89 | 8.0 | 14.5 | 0.00 | 0.00 | 0.00 | 35 | 1019.8 |
| 20260503184258 | 16 | 149 | 8.0 | 12.9 | 0.00 | 0.00 | 0.00 | 32 | 1019.7 |
| 20260503183753 | 16 | 96 | 8.0 | 9.7 | 0.00 | 0.00 | 0.00 | 30 | 1020.0 |
| 20260503183251 | 16 | 100 | 3.2 | 6.4 | 0.00 | 0.00 | 0.00 | 35 | 1020.0 |
| 20260503182749 | 16 | 194 | 3.2 | 4.8 | 0.00 | 0.00 | 0.00 | 34 | 1020.2 |
| 20260503182248 | 15 | 92 | 3.2 | 12.9 | 0.00 | 0.00 | 0.00 | 34 | 1020.2 |
| 20260503181744 | 15 | 23 | 3.2 | 11.3 | 0.00 | 0.00 | 0.00 | 33 | 1020.1 |
| 20260503181241 | 15 | 92 | 0.0 | 4.8 | 0.00 | 0.00 | 0.00 | 36 | 1020.3 |
| 20260503180737 | 15 | 102 | 3.2 | 3.2 | 0.00 | 0.00 | 0.00 | 35 | 1020.4 |
| 20260503180236 | 16 | 184 | 9.7 | 16.1 | 0.00 | 0.00 | 0.00 | 31 | 1020.4 |
| 20260503175732 | 15 | 247 | 1.6 | 6.4 | 0.00 | 0.00 | 0.00 | 36 | 1020.3 |
| 20260503175230 | 15 | 73 | 0.0 | 4.8 | 0.00 | 0.00 | 0.00 | 38 | 1020.4 |
| 20260503174726 | 15 | 269 | 3.2 | 3.2 | 0.00 | 0.00 | 0.00 | 37 | 1020.2 |
| 20260503174224 | 15 | 238 | 0.0 | 4.8 | 0.00 | 0.00 | 0.00 | 40 | 1020.8 |
| 20260503173719 | 15 | 98 | 0.0 | 1.6 | 0.00 | 0.00 | 0.00 | 33 | 1020.6 |
| 20260503173215 | 15 | 218 | 1.6 | 11.3 | 0.00 | 0.00 | 0.00 | 35 | 1020.8 |
| 20260503172712 | 14 | 67 | 0.0 | 9.7 | 0.00 | 0.00 | 0.00 | 37 | 1020.6 |
| 20260503172209 | 14 | 88 | 8.0 | 12.9 | 0.00 | 0.00 | 0.00 | 34 | 1020.6 |
| 20260503171705 | 15 | 242 | 4.8 | 11.3 | 0.00 | 0.00 | 0.00 | 33 | 1020.8 |
| 20260503171203 | 15 | 120 | 0.0 | 3.2 | 0.00 | 0.00 | 0.00 | 32 | 1020.9 |
| 20260503170700 | 14 | 98 | 3.2 | 3.2 | 0.00 | 0.00 | 0.00 | 34 | 1021.0 |
| 20260503170157 | 13 | 106 | 0.0 | 4.8 | 0.00 | 0.00 | 0.00 | 38 | 1021.2 |
| 20260503160124 | 13 | 30 | 1.6 | 4.8 | 0.00 | 0.00 | 0.00 | 39 | 1022.1 |
| 20260503150553 | 11 | 171 | 1.6 | 3.2 | 0.00 | 0.00 | 0.00 | 42 | 1022.2 |